Weather History for Berlin, NH

Change the Weather History Date:

Wednesday, March 13, 2013

  Actual Average Record
Temperature  
Mean Temperature 36 °F -  
Max Temperature 41 °F 31 °F 60 °F (2012)
Min Temperature 27 °F 10 °F -9 °F (1998)
Degree Days  
Heating Degree Days 29    
Moisture  
Dew Point 31 °F    
Average Humidity 79    
Maximum Humidity 96    
Minimum Humidity 57    
Precipitation  
Precipitation 0.03 in - - ()
Sea Level Pressure  
Sea Level Pressure 29.73 in    
Wind  
Wind Speed 3 mph (NW)    
Max Wind Speed 8 mph    
Max Gust Speed -    
Visibility 9 miles    
Events Rain    
Averages and records for this station are not official NWS values.
T = Trace of Precipitation, MM = Missing Value Source: NWS Daily Summary

Daily Weather History Graph

Daily Weather History Graph

Search for Another Location

Airport:

Trip Planner

Search our weather history database for the weather conditions in past years. The results will help you decide how hot, cold, wet, or windy it might be!

Date:

Astronomy

Mar. 13, 2013 Rise Set
Actual Time 7:00 AM EDT 6:48 PM EDT
Civil Twilight 6:31 AM EDT 7:17 PM EDT
Nautical Twilight 5:57 AM EDT 7:51 PM EDT
Astronomical Twilight 5:23 AM EDT 8:25 PM EDT
Moon 7:32 AM EDT (3/13) 9:09 PM EDT (3/13)
Length of Visible Light 12h 46m
Length of Day
11h 48m
Waxing Crescent, 4% of the Moon is Illuminated
Mar 13
Waxing Crescent
Mar 19
First Quarter
Mar 27
Full
Apr 3
Last Quarter
Apr 10
New

Hourly Weather History & Observations

Time (EDT) Temp. Windchill Dew Point Humidity Pressure Visibility Wind Dir Wind Speed Gust Speed Precip Events Conditions
12:08 AM 42.8 °F 41.1 °F 41.0 °F 93% 29.69 in 2.0 mi NW 3.5 mph - 0.01 in Rain Light Rain
12:12 AM 42.8 °F 40.1 °F 41.0 °F 93% 29.69 in 4.0 mi NW 4.6 mph - 0.01 in Rain Light Rain
12:52 AM 41.0 °F 38.0 °F 37.9 °F 89% 29.75 in 7.0 mi WNW 4.6 mph - 0.01 in   Overcast
12:57 AM 39.2 °F - 37.4 °F 93% 29.72 in 6.0 mi Calm Calm - 0.00 in Rain Light Rain
1:52 AM 37.9 °F 35.5 °F 36.0 °F 93% 29.77 in 5.0 mi West 3.5 mph - 0.01 in   Overcast
2:22 AM 37.4 °F 34.9 °F 35.6 °F 93% 29.75 in 6.0 mi WSW 3.5 mph - 0.00 in   Overcast
2:52 AM 37.0 °F - 35.1 °F 93% 29.77 in 6.0 mi Calm Calm - 0.00 in   Overcast
2:57 AM 37.4 °F - 35.6 °F 93% 29.74 in 6.0 mi Calm Calm - N/A   Overcast
3:21 AM 37.4 °F 34.9 °F 33.8 °F 87% 29.74 in 10.0 mi NNW 3.5 mph - N/A   Overcast
3:42 AM 37.4 °F - 33.8 °F 87% 29.74 in 10.0 mi Calm Calm - N/A   Overcast
3:52 AM 36.0 °F - 34.0 °F 93% 29.78 in 10.0 mi Calm Calm - N/A   Overcast
4:52 AM 36.0 °F - 33.1 °F 89% 29.78 in 10.0 mi Calm Calm - N/A   Overcast
5:52 AM 35.1 °F - 33.1 °F 92% 29.78 in 10.0 mi Calm Calm - N/A   Overcast
6:52 AM 34.0 °F - 33.1 °F 96% 29.79 in 8.0 mi Calm Calm - 0.00 in Rain Light Rain
7:52 AM 35.1 °F 32.2 °F 32.0 °F 89% 29.78 in 7.0 mi North 3.5 mph - 0.01 in   Overcast
8:52 AM 36.0 °F - 32.0 °F 86% 29.77 in 10.0 mi Calm Calm - N/A   Overcast
9:52 AM 36.0 °F - 32.0 °F 86% 29.77 in 10.0 mi Calm Calm - N/A   Overcast
10:22 AM 37.4 °F - 33.8 °F 87% 29.73 in 10.0 mi Calm Calm - N/A   Overcast
10:49 AM 39.2 °F - 30.2 °F 70% 29.72 in 10.0 mi Calm Calm - N/A   Overcast
10:52 AM 37.9 °F - 32.0 °F 79% 29.75 in 10.0 mi Calm Calm - N/A   Overcast
11:29 AM 39.2 °F 37.0 °F 28.4 °F 65% 29.70 in 10.0 mi Variable 3.5 mph - N/A   Overcast
11:52 AM 39.9 °F 35.1 °F 27.0 °F 60% 29.73 in 10.0 mi NNW 6.9 mph - N/A   Overcast
12:52 PM 39.0 °F 34.8 °F 28.9 °F 67% 29.72 in 10.0 mi WNW 5.8 mph - N/A   Overcast
1:48 PM 39.2 °F 33.6 °F 26.6 °F 61% 29.69 in 10.0 mi NNW 8.1 mph - N/A   Overcast
1:52 PM 39.0 °F 33.4 °F 27.0 °F 62% 29.73 in 10.0 mi NNW 8.1 mph - N/A   Overcast
2:33 PM 37.4 °F 32.1 °F 26.6 °F 65% 29.69 in 10.0 mi NNW 6.9 mph - N/A   Overcast
2:43 PM 37.4 °F 32.1 °F 26.6 °F 65% 29.69 in 10.0 mi NNW 6.9 mph - N/A   Overcast
2:50 PM 37.4 °F 31.4 °F 26.6 °F 65% 29.69 in 10.0 mi NNW 8.1 mph - N/A   Overcast
2:52 PM 37.9 °F 32.1 °F 27.0 °F 65% 29.72 in 10.0 mi NNW 8.1 mph - N/A   Overcast
3:52 PM 37.9 °F 32.1 °F 27.0 °F 65% 29.72 in 10.0 mi NNW 8.1 mph - N/A   Overcast
4:52 PM 37.9 °F 33.5 °F 26.1 °F 62% 29.72 in 10.0 mi NW 5.8 mph - N/A   Overcast
5:52 PM 37.9 °F 35.5 °F 26.1 °F 62% 29.71 in 10.0 mi North 3.5 mph - N/A   Partly Cloudy
6:52 PM 37.0 °F 34.5 °F 23.0 °F 57% 29.72 in 10.0 mi NNW 3.5 mph - N/A   Mostly Cloudy
7:52 PM 33.1 °F - 26.1 °F 75% 29.73 in 10.0 mi Calm Calm - N/A   Overcast
8:52 PM 32.0 °F - 25.0 °F 75% 29.73 in 9.0 mi Calm Calm - N/A   Mostly Cloudy
9:52 PM 33.1 °F 30.0 °F 26.1 °F 75% 29.75 in 10.0 mi West 3.5 mph - 0.00 in   Overcast
10:52 PM 30.9 °F - 25.0 °F 79% 29.74 in 10.0 mi Calm Calm - N/A   Mostly Cloudy
11:52 PM 27.0 °F - 23.0 °F 85% 29.73 in 9.0 mi Calm Calm - N/A   Partly Cloudy